Location: Flotzheim
(48.8375°N, 10.8136°E)
Time: 04:49:13
(UTC+00:00)

ATLAS 5 CENTAUR R/B - Pass Details

Date: 23 January 2021
Orbit: 511 x 1147 km, 63.3° (Epoch: 16 February)

Event Time Altitude Azimuth Distance (km) Brightness Sun altitude
Rises 17:43:10 0° 266° (W) 2,730 6.6 -16.7°
Reaches altitude 10° 17:45:38 10° 281° (W) 1,904 5.1 -17.1°
Maximum altitude 17:49:05 23° 335° (NNW) 1,345 3.4 -17.7°
Enters shadow 17:52:07 14° 22° (NNE) 1,906 3.8 -18.2°
